GW7041 Weather Reports


time (UTC)temp
C
wind
direction
speed
KPH
gust
KPH
rain 1hr
cm
rain 24hr
cm
rain mn
cm
humidity
%
barometer
mb
20260510174922 20 4 6.4 9.7 0.00 0.00 0.00 45 1020.7
20260510174422 20 10 1.6 6.4 0.00 0.00 0.00 46 1020.7
20260510173922 20 359 6.4 8.0 0.00 0.00 0.00 46 1020.3
20260510172937 20 151 3.2 8.0 0.00 0.00 0.00 44 1020.3
20260510172422 20 287 3.2 6.4 0.00 0.00 0.00 45 1020.3
20260510171922 20 22 3.2 9.7 0.00 0.00 0.00 47 1020.3
20260510171422 20 29 4.8 8.0 0.00 0.00 0.00 45 1020.3
20260510170922 20 31 3.2 14.5 0.00 0.00 0.00 50 1020.3
20260510170422 20 5 9.7 9.7 0.00 0.00 0.00 46 1020.3
20260510165922 20 216 1.6 6.4 0.00 0.00 0.00 48 1020.3
20260510165422 19 201 3.2 6.4 0.00 0.00 0.00 49 1020.3
20260510164922 18 106 3.2 9.7 0.00 0.00 0.00 50 1020.3
20260510164422 19 318 3.2 8.0 0.00 0.00 0.00 46 1020.3
20260510163925 19 309 6.4 8.0 0.00 0.00 0.00 51 1020.3
20260510163422 18 354 6.4 8.0 0.00 0.00 0.00 49 1020.3
20260510162922 18 89 3.2 14.5 0.00 0.00 0.00 49 1020.3
20260510162423 18 12 9.7 12.9 0.00 0.00 0.00 47 1020.0
20260510161926 18 296 6.4 6.4 0.00 0.00 0.00 51 1020.3
20260510161422 18 287 1.6 8.0 0.00 0.00 0.00 51 1020.3
20260510160923 18 237 1.6 9.7 0.00 0.00 0.00 53 1020.3
20260510160422 18 352 9.7 9.7 0.00 0.00 0.00 53 1020.3
20260510155924 18 56 4.8 11.3 0.00 0.00 0.00 53 1020.0
20260510155422 18 315 11.3 16.1 0.00 0.00 0.00 57 1019.6
20260510154923 17 10 6.4 16.1 0.00 0.00 0.00 54 1019.6
20260510154422 18 89 0.0 16.1 0.00 0.00 0.00 55 1020.0
20260510153922 17 215 3.2 8.0 0.00 0.00 0.00 58 1020.0
20260510153422 17 217 0.0 9.7 0.00 0.00 0.00 59 1020.0
20260510152922 17 336 4.8 11.3 0.00 0.00 0.00 57 1020.0
20260510152422 17 340 4.8 6.4 0.00 0.00 0.00 60 1020.0
20260510151923 17 27 8.0 8.0 0.00 0.00 0.00 63 1020.0
20260510151422 17 56 3.2 14.5 0.00 0.00 0.00 63 1019.6
20260510150922 17 2 4.8 11.3 0.00 0.00 0.00 64 1020.0
20260510150422 16 99 1.6 9.7 0.00 0.00 0.00 63 1020.3
20260510145922 17 249 1.6 9.7 0.00 0.00 0.00 64 1020.0
20260510145422 17 65 0.0 6.4 0.00 0.00 0.00 66 1020.3
20260510144922 16 15 0.0 8.0 0.00 0.00 0.00 65 1020.3
20260510144422 16 70 0.0 8.0 0.00 0.00 0.00 67 1020.3
20260510143923 16 353 1.6 6.4 0.00 0.00 0.00 68 1020.3
20260510143422 16 57 3.2 12.9 0.00 0.00 0.00 65 1020.3
20260510142923 16 323 4.8 9.7 0.00 0.00 0.00 67 1020.3
20260510142422 16 55 4.8 16.1 0.00 0.00 0.00 67 1020.3
20260510141922 16 60 6.4 8.0 0.00 0.00 0.00 69 1020.3
20260510141422 16 4 3.2 9.7 0.00 0.00 0.00 67 1020.3
20260510140923 16 48 11.3 14.5 0.00 0.00 0.00 68 1020.3
20260510140423 16 287 4.8 11.3 0.00 0.00 0.00 70 1020.0
20260510135922 16 108 0.0 3.2 0.00 0.00 0.00 71 1019.6
20260510135422 16 9 9.7 9.7 0.00 0.00 0.00 74 1019.6
20260510134923 16 162 1.6 9.7 0.00 0.00 0.00 73 1019.6
20260510134422 16 46 1.6 8.0 0.00 0.00 0.00 72 1019.6
20260510133922 16 32 8.0 8.0 0.00 0.00 0.00 72 1019.3
20260510133422 16 151 3.2 4.8 0.00 0.00 0.00 74 1019.3
20260510132922 16 3 1.6 11.3 0.00 0.00 0.00 75 1019.3
20260510132422 16 3 1.6 4.8 0.00 0.00 0.00 76 1019.6
20260510131922 16 343 1.6 8.0 0.00 0.00 0.00 77 1019.6
20260510131422 16 24 6.4 14.5 0.00 0.00 0.00 76 1019.3
20260510130922 16 38 8.0 8.0 0.00 0.00 0.00 78 1019.3
20260510130424 15 44 6.4 9.7 0.00 0.00 0.00 79 1019.3
20260510125923 15 353 8.0 8.0 0.00 0.00 0.00 80 1019.3
20260510125422 15 48 0.0 4.8 0.00 0.00 0.00 80 1019.3
20260510124923 15 9 3.2 3.2 0.00 0.00 0.00 81 1019.0
20260510124422 15 354 4.8 4.8 0.00 0.00 0.00 80 1019.0
20260510123922 15 66 1.6 6.4 0.00 0.00 0.00 80 1018.6
20260510123422 15 22 9.7 9.7 0.00 0.00 0.00 81 1018.3
20260510122923 15 102 3.2 4.8 0.00 0.00 0.00 83 1018.3
20260510122422 15 50 4.8 6.4 0.00 0.00 0.00 83 1017.9
20260510121922 14 42 4.8 8.0 0.00 0.00 0.00 85 1018.3
20260510121422 14 352 4.8 4.8 0.00 0.00 0.00 85 1018.3
20260510120922 14 66 0.0 3.2 0.00 0.00 0.00 85 1018.3
20260510120422 14 44 1.6 4.8 0.00 0.00 0.00 85 1017.9
20260510115922 14 83 1.6 3.2 0.00 0.00 0.00 85 1018.3
20260510115422 14 33 0.0 4.8 0.00 0.00 0.00 85 1017.9
20260510114922 14 22 0.0 3.2 0.00 0.00 0.00 84 1017.9
20260510114423 14 44 0.0 1.6 0.00 0.00 0.00 84 1017.9
20260510113922 14 89 0.0 3.2 0.00 0.00 0.00 84 1017.9
20260510113422 14 23 0.0 4.8 0.00 0.00 0.00 83 1017.6
20260510112922 14 43 3.2 6.4 0.00 0.00 0.00 83 1017.9
20260510112422 14 26 8.0 8.0 0.00 0.00 0.00 83 1017.6
20260510111922 15 31 3.2 4.8 0.00 0.00 0.00 82 1017.3
20260510111422 15 31 3.2 4.8 0.00 0.00 0.00 81 1017.3
20260510110923 15 23 3.2 8.0 0.00 0.00 0.00 81 1016.9
20260510110422 15 35 0.0 6.4 0.00 0.00 0.00 81 1016.9
20260510105922 15 36 3.2 8.0 0.00 0.00 0.00 80 1016.9
20260510105422 15 64 3.2 4.8 0.00 0.00 0.00 79 1016.9
20260510104922 15 191 0.0 6.4 0.00 0.00 0.00 79 1016.9
20260510104422 15 36 3.2 8.0 0.00 0.00 0.00 78 1016.9
20260510103922 15 17 3.2 8.0 0.00 0.00 0.00 77 1016.9
20260510103422 15 25 0.0 4.8 0.00 0.00 0.00 78 1016.9
20260510102922 15 31 3.2 4.8 0.00 0.00 0.00 77 1016.9
20260510102422 15 9 3.2 3.2 0.00 0.00 0.00 78 1016.9
20260510101922 15 353 3.2 3.2 0.00 0.00 0.00 77 1016.9
20260510101422 15 10 1.6 1.6 0.00 0.00 0.00 76 1016.9
20260510100922 15 10 0.0 1.6 0.00 0.00 0.00 75 1016.6
20260510100422 15 14 1.6 3.2 0.00 0.00 0.00 75 1016.6
20260510095924 15 338 1.6 3.2 0.00 0.00 0.00 74 1016.6
20260510095422 15 25 0.0 1.6 0.00 0.00 0.00 74 1016.3
20260510094922 15 13 3.2 3.2 0.00 0.00 0.00 74 1015.9
20260510094422 16 140 0.0 0.0 0.00 0.00 0.00 73 1016.3
20260510093922 16 205 0.0 1.6 0.00 0.00 0.00 73 1016.3
20260510093422 16 0 0.0 3.2 0.00 0.00 0.00 73 1015.9
20260510092922 16 30 0.0 3.2 0.00 0.00 0.00 72 1015.6
20260510092422 16 6 1.6 3.2 0.00 0.00 0.00 70 1015.6
20260510091922 16 25 0.0 1.6 0.00 0.00 0.00 71 1015.6
20260510091422 16 8 1.6 4.8 0.00 0.00 0.00 70 1015.9
20260510090924 16 11 0.0 3.2 0.00 0.00 0.00 70 1015.6
20260510090422 16 25 0.0 1.6 0.00 0.00 0.00 69 1015.6
20260510085922 16 205 0.0 1.6 0.00 0.00 0.00 69 1015.6
20260510085422 16 235 0.0 0.0 0.00 0.00 0.00 68 1015.2
20260510084922 17 199 0.0 1.6 0.00 0.00 0.00 67 1015.2
20260510084423 17 147 0.0 0.0 0.00 0.00 0.00 68 1015.2
20260510083922 17 14 1.6 3.2 0.00 0.00 0.00 67 1015.2
20260510083423 17 11 1.6 3.2 0.00 0.00 0.00 66 1015.2
20260510082922 17 10 1.6 3.2 0.00 0.00 0.00 67 1014.9
20260510082422 17 11 3.2 3.2 0.00 0.00 0.00 67 1014.9
20260510081922 17 2 3.2 3.2 0.00 0.00 0.00 66 1015.2
20260510081422 17 1 1.6 3.2 0.00 0.00 0.00 68 1014.9
20260510080922 17 0 0.0 1.6 0.00 0.00 0.00 68 1014.9
20260510080422 17 37 0.0 1.6 0.00 0.00 0.00 68 1014.6
20260510075923 17 217 0.0 0.0 0.00 0.00 0.00 69 1014.9
20260510075422 17 25 0.0 3.2 0.00 0.00 0.00 69 1014.9
20260510074922 17 17 1.6 1.6 0.00 0.00 0.00 69 1014.9
20260510074424 17 224 0.0 1.6 0.00 0.00 0.00 70 1015.2
20260510073923 17 164 0.0 0.0 0.00 0.00 0.00 69 1015.2
20260510073422 17 333 0.0 0.0 0.00 0.00 0.00 69 1015.2
20260510072923 17 322 0.0 1.6 0.00 0.00 0.00 70 1015.2
20260510072424 17 340 1.6 3.2 0.00 0.00 0.00 69 1015.2
20260510071922 16 0 0.0 1.6 0.00 0.00 0.00 70 1014.9
20260510071423 16 29 0.0 0.0 0.00 0.00 0.00 70 1014.9
20260510070922 16 25 0.0 0.0 0.00 0.00 0.00 71 1015.2
20260510070423 16 25 0.0 0.0 0.00 0.00 0.00 71 1015.2
20260510065922 16 113 0.0 0.0 0.00 0.00 0.00 70 1014.9
20260510065422 16 115 3.2 4.8 0.00 0.00 0.00 71 1014.9
20260510064922 17 117 0.0 0.0 0.00 0.00 0.00 70 1014.6
20260510064422 17 31 1.6 3.2 0.00 0.00 0.00 68 1014.9
20260510063922 17 0 1.6 3.2 0.00 0.00 0.00 67 1014.9
20260510063423 17 129 0.0 3.2 0.00 0.00 0.00 67 1014.6
20260510062922 17 125 3.2 3.2 0.00 0.00 0.00 67 1014.6
20260510062422 17 182 1.6 1.6 0.00 0.00 0.00 66 1014.9
20260510061924 17 119 0.0 1.6 0.00 0.00 0.00 66 1014.9
20260510061422 17 112 3.2 3.2 0.00 0.00 0.00 66 1014.9
20260510060922 17 142 1.6 3.2 0.00 0.00 0.00 66 1014.6
20260510060422 17 161 1.6 3.2 0.00 0.00 0.00 65 1014.6
20260510055922 17 126 0.0 3.2 0.00 0.00 0.00 65 1014.6
20260510055422 17 129 0.0 1.6 0.00 0.00 0.00 65 1014.9
20260510054924 17 86 1.6 1.6 0.00 0.00 0.00 67 1014.9
20260510054423 17 37 0.0 3.2 0.00 0.00 0.00 69 1014.9
20260510053922 17 7 3.2 6.4 0.00 0.00 0.00 72 1014.9
20260510053422 17 209 0.0 0.0 0.00 0.00 0.00 70 1014.6
20260510052922 17 175 0.0 1.6 0.00 0.00 0.00 70 1014.9
20260510052422 17 169 1.6 3.2 0.00 0.00 0.00 71 1014.6
20260510051922 17 160 0.0 1.6 0.00 0.00 0.00 72 1014.6
20260510051422 17 343 0.0 1.6 0.00 0.00 0.00 71 1014.9
20260510050922 17 315 0.0 1.6 0.00 0.00 0.00 72 1014.6
20260510050423 17 327 1.6 1.6 0.00 0.00 0.00 72 1014.6
20260510045923 17 269 0.0 3.2 0.00 0.00 0.00 72 1014.2
20260510045422 17 174 0.0 3.2 0.00 0.00 0.00 72 1014.2
20260510044922 17 197 1.6 1.6 0.00 0.00 0.00 71 1014.2
20260510044422 17 229 0.0 1.6 0.00 0.00 0.00 71 1014.6
20260510043922 17 230 0.0 3.2 0.00 0.00 0.00 72 1014.2
20260510043422 17 269 1.6 3.2 0.00 0.00 0.00 70 1014.2
20260510042923 18 285 3.2 4.8 0.00 0.00 0.00 69 1014.2
20260510042422 17 177 1.6 4.8 0.00 0.00 0.00 69 1014.2
20260510041922 17 233 1.6 4.8 0.00 0.00 0.00 70 1014.2
20260510041422 17 201 1.6 3.2 0.00 0.00 0.00 72 1013.9
20260510040922 17 190 1.6 3.2 0.00 0.00 0.00 72 1014.2
20260510040422 16 204 1.6 1.6 0.00 0.00 0.00 72 1014.2
20260510035922 16 195 0.0 1.6 0.00 0.00 0.00 73 1014.2
20260510035422 16 220 1.6 3.2 0.00 0.00 0.00 72 1014.2
20260510034922 16 245 1.6 1.6 0.00 0.00 0.00 73 1014.2
20260510034422 16 251 1.6 3.2 0.00 0.00 0.00 72 1014.2
20260510033922 16 279 0.0 1.6 0.00 0.00 0.00 74 1014.2
20260510033422 16 195 0.0 0.0 0.00 0.00 0.00 72 1013.9
20260510032922 16 195 0.0 0.0 0.00 0.00 0.00 72 1013.9
20260510032422 16 224 0.0 0.0 0.00 0.00 0.00 71 1014.2
20260510031922 16 224 0.0 0.0 0.00 0.00 0.00 72 1014.2
20260510031423 16 234 0.0 0.0 0.00 0.00 0.00 70 1013.9
20260510030923 17 202 0.0 0.0 0.00 0.00 0.00 70 1013.5
20260510030422 17 231 1.6 1.6 0.00 0.00 0.00 70 1013.5
20260510025922 17 235 0.0 1.6 0.00 0.00 0.00 70 1013.9
20260510025423 17 199 0.0 0.0 0.00 0.00 0.00 69 1013.5
20260510024922 17 224 0.0 1.6 0.00 0.00 0.00 68 1013.5
20260510024422 17 195 0.0 0.0 0.00 0.00 0.00 64 1013.2
20260510023922 17 315 0.0 0.0 0.00 0.00 0.00 62 1012.9
20260510023422 18 315 0.0 0.0 0.00 0.00 0.00 61 1013.2
20260510022922 18 315 0.0 0.0 0.00 0.00 0.00 61 1012.9
20260510022422 18 330 0.0 1.6 0.00 0.00 0.00 64 1012.9
20260510021922 18 337 0.0 0.0 0.00 0.00 0.00 65 1012.5
20260510021423 18 293 0.0 1.6 0.00 0.00 0.00 65 1012.5
20260510020923 18 224 0.0 1.6 0.00 0.00 0.00 63 1012.5
20260510020422 19 284 0.0 0.0 0.00 0.00 0.00 61 1012.2
20260510015922 20 217 0.0 1.6 0.00 0.00 0.00 60 1011.9
20260510015423 20 204 0.0 1.6 0.00 0.00 0.00 60 1011.9
20260510014922 20 205 0.0 3.2 0.00 0.00 0.00 60 1011.5
20260510014422 20 224 0.0 0.0 0.00 0.00 0.00 58 1011.5
20260510013922 20 224 0.0 0.0 0.00 0.00 0.00 58 1011.2
20260510013422 20 212 0.0 0.0 0.00 0.00 0.00 57 1011.2
20260510012922 21 212 0.0 0.0 0.00 0.00 0.00 55 1011.2
20260510012423 21 230 0.0 1.6 0.00 0.00 0.00 55 1010.8
20260510011923 22 143 3.2 3.2 0.00 0.00 0.00 53 1010.8
20260510011422 22 240 0.0 0.0 0.00 0.00 0.00 50 1010.8
20260510010922 23 250 0.0 3.2 0.00 0.00 0.00 48 1010.2
20260510010424 23 213 0.0 1.6 0.00 0.00 0.00 47 1010.5
20260510005923 25 205 1.6 3.2 0.00 0.00 0.00 43 1010.2
20260510005423 26 230 0.0 0.0 0.00 0.00 0.00 41 1010.2
20260510004923 26 239 0.0 1.6 0.00 0.00 0.00 41 1009.8
20260510004422 27 253 1.6 3.2 0.00 0.00 0.00 38 1009.8
20260510003922 26 255 1.6 3.2 0.00 0.00 0.00 38 1009.8
20260510003422 26 236 1.6 3.2 0.00 0.00 0.00 37 1009.5
20260510002922 26 223 3.2 3.2 0.00 0.00 0.00 37 1009.8
20260510002422 26 209 3.2 6.4 0.00 0.00 0.00 36 1009.8
20260510001922 27 212 3.2 4.8 0.00 0.00 0.00 35 1009.5
20260510001422 27 266 0.0 4.8 0.00 0.00 0.00 33 1009.5
20260510000922 27 234 1.6 4.8 0.00 0.00 0.00 34 1009.5
20260510000422 27 244 3.2 6.4 0.00 0.00 0.00 34 1009.5
20260509235923 27 224 0.0 4.8 0.00 0.00 0.00 34 1009.5
20260509235422 27 265 3.2 6.4 0.00 0.00 0.00 34 1009.8
20260509234922 27 230 3.2 4.8 0.00 0.00 0.00 35 1009.5
20260509234422 27 232 3.2 4.8 0.00 0.00 0.00 34 1009.5
20260509233923 27 263 3.2 6.4 0.00 0.00 0.00 35 1009.5
20260509233422 27 271 4.8 6.4 0.00 0.00 0.00 34 1009.5
20260509232922 26 279 8.0 9.7 0.00 0.00 0.00 33 1009.5
20260509232423 27 272 8.0 9.7 0.00 0.00 0.00 33 1009.5
20260509231922 27 249 6.4 8.0 0.00 0.00 0.00 32 1009.8
20260509231423 27 248 4.8 9.7 0.00 0.00 0.00 31 1009.5
20260509230923 27 233 4.8 8.0 0.00 0.00 0.00 31 1009.5
20260509230422 27 247 4.8 8.0 0.00 0.00 0.00 33 1009.5
20260509225922 27 223 8.0 8.0 0.00 0.00 0.00 35 1009.5
20260509225422 27 226 4.8 8.0 0.00 0.00 0.00 33 1009.5
20260509224922 28 231 4.8 9.7 0.00 0.00 0.00 34 1009.5
20260509224422 27 274 4.8 8.0 0.00 0.00 0.00 33 1009.8
20260509223922 27 282 4.8 8.0 0.00 0.00 0.00 31 1009.5
20260509223422 27 194 8.0 11.3 0.00 0.00 0.00 30 1009.5
20260509222922 27 308 3.2 4.8 0.00 0.00 0.00 30 1009.8
20260509222422 27 310 6.4 6.4 0.00 0.00 0.00 31 1009.8
20260509221923 27 338 4.8 8.0 0.00 0.00 0.00 33 1009.5
20260509221422 27 261 9.7 12.9 0.00 0.00 0.00 32 1009.8
20260509220922 27 245 4.8 11.3 0.00 0.00 0.00 32 1009.8
20260509220422 27 314 4.8 8.0 0.00 0.00 0.00 32 1009.8
20260509215922 27 260 4.8 11.3 0.00 0.00 0.00 32 1009.8
20260509215422 26 189 0.0 6.4 0.00 0.00 0.00 29 1010.2
20260509214923 27 273 8.0 8.0 0.00 0.00 0.00 32 1009.5
20260509214422 26 268 8.0 8.0 0.00 0.00 0.00 32 1009.8
20260509213922 27 258 11.3 14.5 0.00 0.00 0.00 32 1009.5
20260509213425 27 197 6.4 8.0 0.00 0.00 0.00 32 1009.8
20260509212922 26 279 6.4 9.7 0.00 0.00 0.00 33 1009.8
20260509212422 26 253 6.4 9.7 0.00 0.00 0.00 33 1009.8
20260509211923 26 274 9.7 17.7 0.00 0.00 0.00 33 1009.5
20260509211424 26 248 6.4 8.0 0.00 0.00 0.00 32 1009.8
20260509210922 27 282 12.9 12.9 0.00 0.00 0.00 34 1009.8
20260509210422 27 272 12.9 14.5 0.00 0.00 0.00 34 1009.8
20260509205923 26 215 12.9 12.9 0.00 0.00 0.00 31 1010.2
20260509205422 26 339 4.8 8.0 0.00 0.00 0.00 32 1010.2
20260509204922 26 291 6.4 9.7 0.00 0.00 0.00 32 1010.2
20260509204422 26 256 8.0 14.5 0.00 0.00 0.00 34 1010.2
20260509203923 27 264 8.0 16.1 0.00 0.00 0.00 34 1010.2
20260509203423 26 227 6.4 8.0 0.00 0.00 0.00 35 1010.2
20260509202922 26 247 8.0 12.9 0.00 0.00 0.00 33 1010.2
20260509202422 26 243 9.7 9.7 0.00 0.00 0.00 34 1010.5
20260509201922 26 206 0.0 11.3 0.00 0.00 0.00 35 1010.5
20260509201422 26 265 16.1 16.1 0.00 0.00 0.00 31 1010.5
20260509200922 26 251 1.6 4.8 0.00 0.00 0.00 32 1010.5
20260509200422 26 268 8.0 14.5 0.00 0.00 0.00 34 1010.5
20260509195922 26 256 4.8 4.8 0.00 0.00 0.00 36 1010.2
20260509195422 26 248 3.2 8.0 0.00 0.00 0.00 32 1010.5
20260509194922 26 246 8.0 20.9 0.00 0.00 0.00 33 1010.8
20260509194422 26 182 4.8 14.5 0.00 0.00 0.00 32 1010.8
20260509193922 26 222 8.0 8.0 0.00 0.00 0.00 35 1011.2
20260509193422 26 167 4.8 8.0 0.00 0.00 0.00 35 1010.8
20260509192922 26 324 9.7 12.9 0.00 0.00 0.00 33 1011.2
20260509192422 26 274 9.7 14.5 0.00 0.00 0.00 33 1010.8
20260509191922 26 300 3.2 14.5 0.00 0.00 0.00 35 1010.8
20260509191422 26 266 8.0 11.3 0.00 0.00 0.00 33 1010.5
20260509190922 26 258 4.8 4.8 0.00 0.00 0.00 36 1010.8
20260509190422 26 310 4.8 9.7 0.00 0.00 0.00 34 1011.2
20260509185922 26 261 6.4 11.3 0.00 0.00 0.00 32 1010.8
20260509185422 26 252 11.3 14.5 0.00 0.00 0.00 36 1011.2
20260509184923 26 288 8.0 16.1 0.00 0.00 0.00 32 1011.2
20260509184423 26 309 6.4 9.7 0.00 0.00 0.00 36 1010.8
20260509183922 26 287 8.0 12.9 0.00 0.00 0.00 34 1010.8
20260509183423 25 225 6.4 17.7 0.00 0.00 0.00 35 1011.2
20260509182923 26 268 9.7 16.1 0.00 0.00 0.00 32 1011.2
20260509182422 25 332 11.3 17.7 0.00 0.00 0.00 34 1010.8
20260509181922 25 331 8.0 14.5 0.00 0.00 0.00 36 1011.2
20260509181422 25 329 11.3 14.5 0.00 0.00 0.00 33 1011.2
20260509180923 25 358 8.0 11.3 0.00 0.00 0.00 40 1011.2
20260509180423 25 274 6.4 9.7 0.00 0.00 0.00 37 1011.2
20260509175925 25 271 3.2 14.5 0.00 0.00 0.00 37 1011.2
20260509175427 25 346 3.2 14.5 0.00 0.00 0.00 34 1011.2